Location: San Antonio
(29.4240°N, 98.4930°W)
Time: 09:49:26
(UTC-05:00)

A-11 Canister half - Visible Passes

Search period start: 13 July 2025 00:00
Search period end: 23 July 2025 00:00
Orbit: 1523 x 1684 km, 47.3° (Epoch: 12 July)

Date Brightness Start Highest point End Pass type
(mag) Time Alt. Az. Time Alt. Az. Time Alt. Az.
13 Jul 10.7 02:17:12 16° ESE 02:17:12 16° ESE 02:20:51 10° E visible
13 Jul 9.1 04:15:29 44° SSW 04:19:10 74° SE 04:28:53 10° NE visible
13 Jul 9.9 06:15:38 10° W 06:24:49 41° NNW 06:33:46 10° NE visible
14 Jul 10.8 01:56:30 13° ESE 01:56:30 13° ESE 01:58:34 10° E visible
14 Jul 9.1 03:54:47 53° SSW 03:57:21 70° SE 04:07:03 10° NE visible
14 Jul 9.8 05:53:36 10° W 06:02:55 43° NNW 06:11:57 10° NE visible
15 Jul 11.0 01:35:46 11° E 01:35:46 11° E 01:36:10 10° E visible
15 Jul 9.0 03:34:02 60° S 03:35:31 67° SE 03:45:12 10° NE visible
15 Jul 9.8 05:32:18 12° W 05:41:00 45° NNW 05:50:09 10° NE visible
16 Jul 9.1 03:13:15 62° SE 03:13:41 63° SE 03:23:21 10° NE visible
16 Jul 9.7 05:11:31 17° W 05:19:06 46° NNW 05:28:20 10° NE visible
17 Jul 9.2 02:52:25 59° ESE 02:52:25 59° ESE 03:01:29 10° ENE visible
17 Jul 9.6 04:50:40 22° W 04:57:11 49° NNW 05:06:31 10° NE visible
18 Jul 9.4 02:31:32 52° ESE 02:31:32 52° ESE 02:39:37 10° ENE visible
18 Jul 9.6 04:29:47 27° W 04:35:17 51° NNW 04:44:43 10° NE visible
19 Jul 9.6 02:10:36 45° E 02:10:36 45° E 02:17:44 10° ENE visible
19 Jul 9.5 04:08:52 33° W 04:13:24 53° NNW 04:22:55 10° NE visible
19 Jul 10.5 06:12:29 10° WNW 06:20:34 27° N 06:28:27 10° NE visible
20 Jul 9.8 01:49:38 39° E 01:49:38 39° E 01:55:51 10° ENE visible
20 Jul 9.4 03:47:53 39° W 03:51:30 55° NNW 04:01:06 10° NE visible
20 Jul 10.5 05:50:25 10° WNW 05:58:35 28° N 06:06:34 10° NE visible
21 Jul 10.0 01:28:37 33° E 01:28:37 33° E 01:33:56 10° ENE visible
21 Jul 9.4 03:26:52 46° W 03:29:36 58° NW 03:39:17 10° NE visible
21 Jul 10.5 05:28:22 10° WNW 05:36:37 28° N 05:44:40 10° NE visible
22 Jul 10.2 01:07:32 28° E 01:07:32 28° E 01:12:02 10° ENE visible
22 Jul 9.3 03:05:47 53° WNW 03:07:43 61° NW 03:17:28 10° NE visible
22 Jul 10.5 05:06:19 10° WNW 05:14:39 29° NNW 05:22:47 10° NE visible
